Regional Weather Roundup
Issued by NWS

Home | Current Version | Previous Version | Graphics & Text | Print | Product List | Glossary Off
Versions: 1 2 3 4 5 6 7 8 9 10 11 12 13 14 15 16 17 18 19 20 21 22 23 24 25 26 27 28 29 30 31 32 33 34 35 36 37 38 39 40 41 42 43 44 45 46 47 48 49 50

000
ASUS43 KMPX 211910
RWRMN
WEATHER ROUNDUP FOR MINNESOTA
NATIONAL WEATHER SERVICE TWIN CITIES/CHANHASSEN MN
200 PM CDT THU AUG 21 2014


NOTE: "FAIR" INDICATES FEW OR NO CLOUDS BELOW 12,000 FEET WITH NO
SIGNIFICANT WEATHER AND/OR OBSTRUCTIONS TO VISIBILITY. N/A MEANS
CURRENT SKY AND/OR WEATHER CONDITIONS ARE NOT AVAILABLE.

MNZ060>063-068>070-212000-
   Twin Cities Metro

CITY           SKY/WX    TMP DP  RH WIND       PRES   REMARKS
TWIN CITIES    CLOUDY    82  72  71 SE10      29.76S
ST PAUL        CLOUDY    80  71  74 E10       29.77R
CRYSTAL        CLOUDY    80  70  71 E7        29.75S
BLAINE         CLOUDY    79  73  83 E9        29.78S
LAKEVILLE      PTSUNNY   81  72  74 S8        29.77R
EDEN PRAIRIE   CLOUDY    83  72  69 S7        29.75R
SOUTH ST PAUL  CLOUDY    81  71  72 E6        29.76S
LAKE ELMO      CLOUDY    77  72  83 E7        29.79S
$$
MNZ001>005-007-008-013>017-022>024-027-028-212000-
   Northwest Minnesota

CITY           SKY/WX    TMP DP  RH WIND       PRES   REMARKS
BEMIDJI        CLOUDY    70  64  82 E8        29.84S
HALLOCK        CLOUDY    73  66  78 SE6       29.80S
ROSEAU         PTSUNNY   68  63  83 E8        29.85R
WARROAD        LGT RAIN  66  63  88 E9        29.86R
THIEF RVR FALL CLOUDY    77  66  69 SW5       29.81R
CROOKSTON      PTSUNNY   77  66  69 SW5       29.79S
FOSSTON        CLOUDY    77  66  69 CALM      29.81S
DETROIT LAKES  CLOUDY    73  68  83 SE8       29.81S
MOORHEAD       PTSUNNY   77  72  83 E6        29.78R
PARK RAPIDS    CLOUDY    71  65  81 E12       29.82R
MAHNOMEN       CLOUDY    75  67  76 SE5       29.79F
$$
MNZ006-009>011-018-025>026-212000-
   North Central Minnesota

CITY           SKY/WX    TMP DP  RH WIND       PRES   REMARKS
BAUDETTE       CLOUDY    66  62  87 E13       29.85S
FLAG ISLAND    CLOUDY    66  61  82 E5        29.86R
INTL FALLS     LGT RAIN  67  61  81 E8        29.88S
WASKISH        PTSUNNY   73  66  78 CALM      29.84S
BIG FORK       PTSUNNY   72  64  78 S6        29.87R
LONGVILLE      CLOUDY    72  66  83 E3        29.84S
GRAND RAPIDS   CLOUDY    70  63  78 SE8       29.87R
CRANE LAKE     CLOUDY    66  61  82 CALM      29.91S
ORR            DRIZZLE   70  61  73 E3        29.86F
COOK           CLOUDY    70  63  78 E7        29.89S
WALKER         CLOUDY    70  65  85 SE3       29.84R
$$
MNZ012-019>021-037-212000-
   Northeast Minnesota

CITY           SKY/WX    TMP DP  RH WIND       PRES   REMARKS
DULUTH         CLOUDY    66  60  81 E16       29.89S
ELY            CLOUDY    64  57  77 SE9       29.92S
HIBBING        CLOUDY    72  62  71 SE12      29.88S
EVELETH        CLOUDY    70  61  73 E9        29.90S
DULUTH HARBOR  CLOUDY    63  61  94 NE22      29.88F
TWO HARBORS    CLOUDY    63  57  82 E14G20    29.89S
SILVER BAY     CLOUDY    59  59 100 NE10G16   29.91F
GRAND MARAIS     N/A     64  60  87 E15       29.95R
G MARAIS ARPRT PTSUNNY   63  55  77 E7        29.98S
$$
MNZ029>031-032-039>041-046>048-054>057-064-212000-
   West Central Minnesota

CITY           SKY/WX    TMP DP  RH WIND       PRES   REMARKS
FERGUS FALLS   CLOUDY    73  66  78 E5        29.78R
WHEATON        MOSUNNY   77  68  73 N7        29.78S
MORRIS         SUNNY     81  70  69 NW6       29.76S
ALEXANDRIA     CLOUDY    73  70  90 NE10      29.81R
ELBOW LAKE     CLOUDY    76  71  83 E5        29.78R
WADENA         CLOUDY    70  68  94 E7        29.81R FOG
GLENWOOD       MOSUNNY   77  72  83 N5        29.79
APPLETON       MOSUNNY   84  72  65 NW9       29.76R
BENSON         PTSUNNY   82  72  69 N7        29.76S
ORTONVILLE     PTSUNNY   81  70  69 NW8       29.76S
MADISON        SUNNY     86  73  66 NW7       29.76R HX  93
WILLMAR        FAIR      81  72  74 NW9       29.77S
$$
MNZ033>034-036-042>043-049>051-058-059-212000-
   Central Minnesota

CITY           SKY/WX    TMP DP  RH WIND       PRES   REMARKS
ST CLOUD       CLOUDY    76  70  82 E6        29.78S
SAUK CENTRE    CLOUDY    71  69  93 NE9       29.79S FOG
PAYNESVILLE    CLOUDY    75  70  86 N6        29.78R
AITKIN         CLOUDY    70  64  83 E6        29.83S
PINE RIVER     CLOUDY    70  64  83 E8        29.87S
BRAINERD       CLOUDY    67  65  93 E8        29.83R FOG
STAPLES        CLOUDY    70  66  88 E7        29.82R FOG
LONG PRAIRIE   LGT RAIN  70  68  94 NE7       29.81R
LITTLE FALLS   CLOUDY    68  64  88 NE8       29.80F FOG
LITCHFIELD     CLOUDY    81  75  83 N5        29.78R
BUFFALO        CLOUDY    77  70  79 NE8       29.78R
MAPLE LAKE     CLOUDY    76  73  88 E8        29.79R
$$
MNZ037-044-045-052-053-212000-
   East Central Minnesota

CITY           SKY/WX    TMP DP  RH WIND       PRES   REMARKS
PRINCETON      CLOUDY    75  70  83 NE7       29.79F
MORA           CLOUDY    70  68  94 E5        29.84S
CAMBRIDGE      MOSUNNY   77  66  69 E8        29.78F
RUSH CITY      CLOUDY    72  68  86 E7        29.82S
MOOSE LAKE     CLOUDY    64  61  88 NE8       29.84S
HINCKLEY       CLOUDY    73  70  88 E7        29.83S
CLOQUET        CLOUDY    64  61  88 E10       29.88S
MCGREGOR       CLOUDY    68  63  83 E12       29.85F
$$
MNZ071>073-080-081-089-090-097-098-212000-
   Southwest Minnesota

CITY           SKY/WX    TMP DP  RH WIND       PRES   REMARKS
MONTEVIDEO     MOSUNNY   82  81  94 N9        29.76S HX  95
GRANITE FALLS  MOSUNNY  N/A N/A N/A NW8       29.76R
CANBY          PTSUNNY   87  71  58 NW10      29.77R HX  93
MARSHALL       PTSUNNY   90  73  58 N9        29.75R HX  98
REDWOOD FALLS  CLOUDY    85  75  72 N6        29.74R HX  93
OLIVIA         CLOUDY    81  72  74 NW3       29.76R
PIPESTONE      MOSUNNY   84  73  70 W12       29.80R HX  91
WINDOM         SUNNY     84  72  65 SW14G20   29.77S
WORTHINGTON    SUNNY     84  23  10 SW12G21   29.81
JACKSON        SUNNY     86  68  54 SW15      29.79S
TRACY          PTSUNNY   87  77  71 SW7       29.76R HX  98
SLAYTON        PTSUNNY   87  74  65 SW9       29.80R HX  95
$$
MNZ065>067-074>077-082>085-091>093-212000-
   South Central Minnesota

CITY           SKY/WX    TMP DP  RH WIND       PRES   REMARKS
MANKATO        SUNNY     84  70  61 S9G16     29.76S
NEW ULM        SUNNY     84  75  74 S10       29.74S HX  92
ST JAMES       SUNNY     88  72  58 SW10G16   29.77R HX  94
FAIRMONT       MOSUNNY   84  66  54 MISG      29.78S
GLENCOE        CLOUDY    83  72  70 S7        29.75S
FARIBAULT      SUNNY     88  66  48 S9        29.78S HX  90
OWATONNA       SUNNY     84  72  65 S9G17     29.79R
WASECA         SUNNY     81  64  57 S14       29.81R
ALBERT LEA     MOSUNNY   82  72  69 SW9       29.79R
$$
MNZ078>079-086>088-094>096-212000-
   Southeast Minnesota

CITY           SKY/WX    TMP DP  RH WIND       PRES   REMARKS
ROCHESTER      MOSUNNY   80  71  74 S8        29.83R
RED WING       PTSUNNY   82  70  65 S10       29.77S
STANTON        PTSUNNY   84  72  67 S8        29.76S
DODGE CENTER   SUNNY     82  72  69 S10       29.81R
WINONA         CLOUDY    79  72  78 SE7       29.82S
AUSTIN         MOSUNNY   81  72  74 S9        29.80S
PRESTON        PTSUNNY   78  74  90 S9        29.84R
$$
ABBREVIATIONS USED IN REMARKS
   TC - TEMPERATURES IN CELSIUS
  WCI - WIND CHILL INDEX
   HX - HEAT INDEX
  VSB - VISIBILITY
$$


USA.gov is the U.S. government's official web portal to all federal, state and local government web resources and services.